Weather in Jayapura

Indonesia     2°32′08″S   140°42′21″E
temp.,
°C
wind,
m/s
gust,
m/s
humid.,
%
clouds,
%
prec.,
mm/h
press.,
hPa
HPBL,
m
19 january, wed
wed1900:00+24w5889100 3.6 1008538
03:00+24wnw6988100 4.9 1006627
06:00+24w5787100 1.0 1008508
09:00+24wsw2391100 2.6 1009337
12:00+25sw2485100 0.9 1007432
15:00+25wnw3586100 1.1 1005342
18:00+24w4587100 0.0 1005315
21:00+25w4587100 0.0 1007379
20 january, thu
thu2000:00+25wnw3587100 0.3 1006358
03:00+25w4589100 2.2 1005405
06:00+24wsw3490100 3.3 1006235
09:00+26wnw358799 5.1 1008522
12:00+27nw568699 1.0 1006537
15:00+27nw5877100 1.6 1004770
18:00+26wnw5683100 0.3 1006523
21:00+26wnw4584100 1.3 1008461
21 january, fri
fri2100:00+25w4586100 0.4 1007457
03:00+24sw349099 2.2 1006234
06:00+25wsw3486100 0.7 1007317
09:00+25sw2286100 0.7 1008251
12:00+28wnw1472100 0.0 1005834
15:00+28nw557566 0.2 1003713
18:00+26wnw578676 0.5 1005446
21:00+26wnw5687100 1.4 1007448
22 january, sat
sat2200:00+25wsw4588100 0.3 1006321
03:00+25w3486100 1.0 1004296
06:00+24s349199 0.1 1006155
09:00+28ssw127168 0.1 1007524
12:00+28n337579 0.2 1005394
15:00+28n227476 0.8 1003580
18:00+26nne1282100 0.4 1005306
21:00+26ese0184100 0.7 1007306
23 january, sun
sun2300:00+25se2389100 2.6 1006181
03:00+25ssw3391100 5.8 1005107
06:00+24s4694100 4.5 1007281
09:00+24ssw2388100 8.5 1009194
12:00+28s1270100 0.0 1006560
15:00+27nne2277100 0.4 1004428
18:00+26ene2386100 0.5 1006336
21:00+25ese3589100 2.1 1008273